COSMOS 482 DESCENT CRAFT, 6073

Orbit data source: Space-Track

This satellite is expected to reenter Earth’s atmosphere soon.

Forecasted Reentry Time: 2025-05-10T06:33:14.180Z ±3.21 hours

Download the latest analysis for timing, risk, and background information.

COSMOS 482 DESCENT CRAFT, 6073 is a Commonwealth of Independent States-origin payload satellite in LEO that was launched on Fri, 31 Mar 1972 UTC via an MOLNIYA 8K78M launch vehicle from the Tyuratam Missile And Space Complex (TTMTR).

This descent capsule was originally intended to reach Venus as part of the Venera program, but a failed upper stage burn left it stranded in Earth orbit. Designed to survive Venus’ extreme atmospheric conditions, it remains in orbit today and is expected to reenter Earth’s atmosphere uncontrolled, with current forecasts indicating a likely descent on May 10, 2025. Due to its rugged construction, it is one of the rare objects with potential to partially survive reentry. The projected reentry time has passed and the object may have already de-orbited. We will continue to monitor for confirmation on final landing time and location from official sources.

Not visible in the next 10 days
Identifier
6073, 1972-023E
Orbit
LEO
Last TLE update
9 hours ago
Origin
Manufacturer
Lavochkin
Mission
Decayed Civil Planetary
Bus & Motor
MV SA, Unknown motor
Mass
~495 kg wet, 475 kg dry
Launch date (UTC)
1972-03-31 (53 years ago)
Launch vehicle
MOLNIYA 8K78M
Launch site
Tyuratam Missile And Space Complex (TTMTR)
Object type
Payload
Rocket body
Debris
Shape & HBR
Sphere, Unknown HBR
Radar Cross Section
0.785 m², Medium (>0.1 m² and < 1m²)

Expand to show TLE details & history

TLE from 9 hours ago
0 COSMOS 482 DESCENT CRAFT
1  6073U 72023E   25130.02495443  .08088373  12542-4  65849-4 0  9993
2  6073  51.9455 241.9030 0035390 103.6551  63.6433 16.48653575751319
Epoch: 2025-05-10T00:35Z
Definitive object data (Epoch: 2025-05-10T00:35:56.062Z)
Latitude
9.66795°
Longitude
177.2276°
Altitude
132.768 km
Speed
7.835 km/s
True Right ascension
03h 37m 08s
True Declination
9° 36' 21"
Sunlit
Object was in daylight at TLE epoch
Visualization TLE readout
Latitude
-7.20653°
Longitude
-3.05045°
Altitude
134.408 km
Speed
7.823 km/s
Apparent Right ascension
12h 18m 50s
Apparent Declination
-49° 32' 30"
Sunlit
Object is in full shadow
Visualization observer readout
Local Sidereal Time
18:16:30
Azimuth
227.826° WSW
Elevation
-28.893°
Doppler factor
1
Orbital elements
Apogee altitude
166.44 km
Perigee altitude
120.28 km
Semi-major axis
6,521.497 km
Eccentricity
0.003539
Inclination
51.9455°
RAAN
241.903°
Arg. of periapsis
103.6551°
True anomaly
64.0074°
Mean anomaly
63.6433°
Eccentric anomaly
63.82528°
Mean motion
4.12119 °/min
BSTAR
0.000065849
Orbital period
87.35 mins
Loading maneuver chart data...
Loading SW <> Apogee altitude chart data...
Loading historical data...
Loading historical data...
Loading historical data...
Loading historical data...
Loading historical data...
Loading historical data...
Loading historical data...

COSMOS 482 DESCENT CRAFT Visibility forecast

Observer location: undefined°, undefined°

COSMOS 482 DESCENT CRAFT is not visible in the next 10 days
Span
Click to sort rows by Start time (UTC) header in descending order
Start Az.
Max El. time (UTC)
Max El. Az.
Max El.
End time (UTC)
End Az.
|